Home > Weather > Heide > Past weeks

Flag for Germany Past Weather in Heide, Schleswig-Holstein, Germany — Yesterday and Last 2 Weeks

Now
57 °F

Fog.


Feels Like: 57 °F
Forecast: 62 / 78 °F
Wind: 2 mph from South

Location: Hohn

Current Time: Aug 27, 2016 at 5:25:38 AM

Latest Report: Aug 27, 2016 at 4:20 AM


Visibility: 0 mi

Pressure: 30.15 "Hg

Humidity: 94%

Dew Point: 55 °F

Location of HeideLocation

Past Weather in Heide — Graph

°F

Heide Temperature Yesterday

Maximum temperature yesterday: 81 °F (at 11:20 AM)
Minimum temperature yesterday: 59 °F (at 6:20 AM)
Average temperature yesterday: 70 °F

High & Low Weather Summary for the Past Weeks

 TemperatureHumidityPressure
High86 °F (Aug 25, 4:20 PM)100% (Aug 12, 6:20 AM)30.30 "Hg (Aug 12, 6:20 AM)
Low43 °F (Aug 16, 5:20 AM)41% (Aug 16, 4:20 PM)29.77 "Hg (Aug 20, 6:20 AM)
Average62 °F83%30.06 "Hg
* Reported Aug 12 3:20 AM — Aug 27 3:20 AM, Heide, Weather by CustomWeather, © 2016

Note: Actual official high and low records may vary slightly from our data, if they occured in-between our weather recording intervals... More about our weather records

Advertising

Heide Weather History for the Previous 24 Hours

Scroll right to see more
 ConditionsComfort  
Time TempWeatherWind HumidityBarometerVisibility
3:20 AM
Sat, Aug 27
55 °FFog.1 mph94%30.15 "Hg4 mi
2:20 AM55 °FFog.1 mph100%30.12 "Hg6 mi
1:20 AM57 °FPassing clouds.3 mph100%30.12 "HgN/A
12:20 AM59 °FPassing clouds.3 mph100%30.12 "HgN/A
11:20 PM
Fri, Aug 26
61 °FPassing clouds.5 mph94%30.12 "HgN/A
10:20 PM63 °FPassing clouds.7 mph88%30.09 "HgN/A
9:20 PM63 °FScattered clouds.6 mph94%30.09 "HgN/A
8:20 PM64 °FScattered clouds.8 mph88%30.07 "HgN/A
7:20 PM68 °FScattered clouds.10 mph83%30.07 "HgN/A
6:20 PM72 °FPassing clouds.14 mph73%30.04 "HgN/A
5:20 PM73 °FPassing clouds.14 mph74%30.04 "HgN/A
4:20 PM77 °FPassing clouds.14 mph65%30.04 "HgN/A
3:20 PM81 °FPassing clouds.16 mph54%30.01 "HgN/A
2:20 PM81 °FPassing clouds.14 mph58%30.01 "HgN/A
1:20 PM79 °FPassing clouds.12 mph65%29.98 "Hg5 mi
12:20 PM81 °FPassing clouds.17 mph58%29.95 "HgN/A
11:20 AM81 °FPassing clouds.7 mph54%29.95 "HgN/A
10:20 AM75 °FPartly sunny.7 mph61%29.92 "HgN/A
9:20 AM73 °FPartly sunny.7 mph61%29.92 "HgN/A
8:20 AM68 °FScattered clouds.7 mph69%29.92 "HgN/A
7:20 AM64 °FScattered clouds.5 mph78%29.92 "HgN/A
6:20 AM59 °FPassing clouds.5 mph88%29.92 "HgN/A
5:20 AM61 °FPassing clouds.6 mph83%29.92 "HgN/A
Weather by CustomWeather, © 2016

See weather overviewHow to use our weather pages